Theta_e
322 322 321 327 327 328 328 329 330 330 328 328 330 330 328 327 325 313 307 316 318 326 322 306 307 305 306 302 302 300 292 288 292 292 293 296 296 297 298 299 301 305 314 317 325
321 321 321 326 326 327 328 328 330 330 330 329 329 327 326 325 311 308 322 329 328 330 309 303 303 303 300 300 298 295 291 292 295 295 295 297 297 298 298 299 303 309 316 321 329
318 320 321 324 326 326 327 327 328 329 329 328 328 326 324 317 305 307 326 327 327 325 310 307 305 302 298 296 295 295 294 295 295 297 298 297 296 296 297 294 303 308 315 319 326
318 317 320 320 319 325 326 327 327 328 328 327 326 323 322 314 303 307 327 327 327 320 307 304 303 298 295 296 298 292 297 295 297 299 297 296 297 294 296 297 300 312 320 319 322
317 318 318 320 320 324 325 327 327 327 327 326 325 324 316 303 302 310 325 325 324 309 304 302 300 297 294 296 296 294 294 295 296 297 296 298 295 295 295 296 307 317 319 318 320
316 316 317 319 320 323 324 326 326 327 326 324 323 322 306 295 307 315 318 315 310 305 303 303 301 302 298 296 295 296 294 294 294 295 295 296 293 295 296 299 313 317 317 318 319
314 315 317 318 319 322 323 325 325 325 325 323 321 312 302 300 309 314 312 308 308 303 300 302 303 301 298 294 297 295 291 291 292 294 293 294 292 294 295 300 312 314 315 316 318
314 315 317 318 319 322 322 324 324 324 324 323 319 309 299 310 310 312 309 305 306 303 302 303 301 300 299 297 294 292 289 286 290 293 293 293 290 294 295 299 306 311 312 314 317
313 314 316 317 318 319 321 322 322 324 322 319 310 306 298 311 305 308 305 303 305 301 300 303 300 295 294 290 286 287 283 286 287 291 291 291 290 292 293 296 298 303 307 312 314
312 314 316 317 319 319 321 322 322 321 316 313 311 299 300 301 305 305 303 304 300 299 297 296 293 289 287 286 284 283 284 285 286 291 290 289 290 291 291 293 295 297 300 301 304
311 314 316 317 319 320 319 316 309 306 305 298 298 298 297 305 306 303 302 300 297 294 288 291 287 284 286 288 288 287 286 286 285 290 290 288 289 290 291 289 291 292 292 293 295
311 313 316 318 320 320 317 308 307 304 296 299 300 300 300 305 299 301 302 295 292 287 289 288 284 289 291 290 288 285 284 284 287 290 288 286 288 290 290 291 292 292 290 292 293
310 313 315 318 319 317 311 308 308 307 295 295 297 298 299 301 298 298 299 294 291 287 287 286 288 291 290 287 287 283 283 283 286 287 286 284 285 286 290 290 291 292 293 294 295
309 314 316 318 313 313 308 307 309 304 287 289 293 297 300 299 295 301 301 296 290 287 287 287 290 290 287 286 287 283 287 287 286 284 280 283 279 283 285 288 289 292 294 294 296
312 315 317 318 312 307 308 307 305 297 278 291 292 302 300 294 296 296 300 296 288 288 288 285 287 287 285 286 288 285 288 287 284 282 280 279 278 281 282 286 289 291 292 293 294
314 315 317 315 313 312 308 305 298 285 276 286 293 292 293 293 294 295 296 296 293 290 288 287 289 290 289 288 289 288 286 285 283 282 277 279 280 279 282 287 288 287 289 291 291
315 316 315 316 307 308 306 299 284 279 287 283 287 291 291 288 290 293 291 287 286 283 283 284 285 286 289 286 286 285 282 276 276 275 276 278 277 282 285 287 287 287 289 289 291
315 315 314 314 309 307 302 290 278 283 284 287 289 290 286 289 288 291 289 286 287 286 283 282 280 286 288 287 284 283 283 277 272 272 276 279 278 282 287 288 288 287 288 292 292
315 314 311 310 308 306 295 282 280 284 286 286 287 285 283 287 287 287 288 288 287 286 283 280 281 287 288 288 290 284 281 284 278 269 274 278 280 286 287 287 287 287 289 291 292
311 309 306 309 308 301 290 283 283 289 289 289 283 286 282 285 284 286 287 290 287 288 289 285 281 286 287 289 288 286 288 282 279 271 271 276 277 280 284 286 287 287 289 289 291
309 301 306 308 306 295 284 282 287 290 292 287 284 283 285 285 284 284 286 286 290 288 288 286 285 283 286 285 283 283 282 281 282 280 274 272 277 283 285 285 286 287 288 289 291
304 291 306 307 291 291 286 286 292 290 291 289 288 286 286 287 283 283 283 286 292 290 286 288 285 280 282 285 286 285 285 285 282 276 276 277 279 285 286 286 287 287 287 286 290
295 296 305 302 285 286 288 287 290 289 290 288 287 288 290 287 284 285 285 289 291 290 288 289 282 277 281 284 285 283 283 285 282 281 277 275 278 287 286 288 288 290 289 290 289
293 288 295 296 293 289 286 286 286 291 291 291 289 290 288 287 289 285 286 290 291 291 295 293 284 283 279 282 285 282 284 284 284 280 279 280 280 283 285 288 288 289 290 290 290
289 289 292 286 289 290 289 287 286 286 291 291 288 289 288 285 286 285 288 288 289 293 292 289 280 281 281 283 285 283 284 284 284 286 282 284 282 284 286 287 286 286 290 290 290
288 291 293 291 291 289 289 286 287 288 290 288 286 289 290 286 287 283 286 285 286 287 285 286 276 281 278 282 283 282 284 285 285 285 283 280 281 286 287 285 286 287 288 288 289
288 292 295 292 289 287 286 287 289 291 291 292 290 288 287 289 291 292 292 291 290 288 286 285 278 275 271 280 281 278 282 283 285 284 285 282 287 287 284 287 287 287 287 287 289
Wind_Speed
20 17 19 25 23 22 21 20 23 21 22 19 15 9 6 5 2 1 5 5 6 4 4 2 2 2 2 3 2 3 5 3 7 7 5 4 4 3 2 6 1 1 6 4 17
20 20 21 25 25 23 21 21 22 23 23 22 17 14 10 5 2 9 5 8 6 7 4 6 5 3 3 2 3 5 4 8 5 5 7 8 6 8 4 3 0 1 4 13 17
17 20 22 24 26 24 22 21 21 20 19 19 17 15 13 10 4 11 16 13 10 8 5 5 4 3 3 2 2 3 4 4 3 4 5 8 6 4 9 4 6 9 10 13 16
18 20 25 20 20 25 22 21 22 21 19 19 18 16 15 6 9 2 20 21 17 14 5 5 5 5 5 7 6 2 5 2 3 3 5 9 8 5 6 7 6 10 18 14 14
17 14 21 25 25 26 23 21 21 20 18 21 21 20 12 3 9 2 7 17 9 10 11 8 6 5 6 5 5 3 2 2 1 2 3 7 4 6 7 1 6 10 8 15 14
17 14 23 26 21 27 24 23 22 21 21 22 22 17 6 8 1 4 8 11 9 7 7 7 9 4 5 5 7 6 2 2 2 2 2 5 3 5 5 3 7 12 11 9 13
17 16 23 26 21 27 25 24 24 21 23 25 22 9 3 16 4 3 5 7 7 7 6 4 4 4 4 5 4 7 4 2 0 1 2 1 2 6 1 5 9 9 8 8 9
19 19 23 25 23 22 26 25 25 24 23 24 22 2 5 1 6 1 3 5 5 5 4 5 4 3 1 1 4 7 5 4 3 4 1 4 9 4 5 10 10 9 7 8 10
16 19 23 26 30 28 26 23 25 25 26 21 7 4 5 4 5 5 3 9 7 3 2 4 5 4 4 6 3 5 5 3 2 1 2 3 7 4 4 7 9 9 9 9 7
17 20 23 30 31 32 27 25 27 26 21 10 5 3 5 8 5 5 2 9 6 7 5 4 5 4 4 3 10 4 6 4 4 4 0 3 7 3 2 6 10 9 8 7 8
20 20 22 32 32 30 25 19 16 11 16 8 12 3 8 4 5 3 5 7 5 6 6 2 5 7 8 7 7 6 6 6 3 0 3 6 6 8 4 4 8 9 9 9 13
21 22 25 34 34 33 23 18 21 5 20 7 17 5 3 12 3 6 8 8 6 6 5 5 6 7 7 5 5 3 5 5 2 2 3 1 11 9 6 7 9 11 9 12 8
25 26 28 35 36 28 24 22 16 20 10 4 7 13 6 5 15 15 12 5 12 9 7 8 7 8 7 6 6 4 6 5 5 4 2 3 8 5 7 5 6 8 10 9 16
26 31 32 37 29 25 24 20 23 12 7 6 7 7 4 8 5 4 8 7 5 9 9 6 3 10 5 6 7 5 5 6 8 6 4 2 7 6 5 9 6 11 13 16 14
29 35 39 40 23 24 29 21 17 3 12 13 8 2 5 5 12 7 3 5 10 8 8 8 8 7 5 6 6 6 5 6 4 5 5 1 1 8 1 7 10 14 14 11 9
34 39 37 28 17 21 20 20 4 7 8 8 10 10 8 4 1 7 5 4 6 6 5 5 2 8 10 4 7 10 7 7 5 3 2 7 7 7 5 9 8 3 3 7 7
39 39 38 21 20 21 19 14 10 11 9 9 18 18 20 6 5 20 18 7 9 10 9 3 2 1 5 8 3 3 7 3 2 2 5 2 2 9 9 10 6 5 7 2 3
40 40 31 11 22 27 15 14 16 7 18 3 16 24 12 8 2 15 14 8 6 6 7 9 6 9 5 8 10 6 9 8 7 4 4 1 9 9 6 7 7 5 1 4 4
40 22 16 16 25 20 20 19 18 20 10 18 15 24 5 7 9 8 21 20 10 8 10 7 5 1 2 5 11 7 6 8 9 2 3 6 7 12 5 7 2 5 4 5 4
21 19 11 30 28 18 18 12 8 12 15 21 13 17 19 24 9 17 21 16 9 9 4 7 6 1 2 4 3 9 11 5 2 5 4 5 6 7 4 5 5 5 5 6 4
19 11 17 24 20 17 24 8 6 10 23 13 8 10 14 20 9 13 19 3 8 6 2 6 6 3 4 7 9 5 5 4 7 6 7 1 7 7 5 2 2 7 8 7 7
9 7 21 20 21 18 21 7 7 18 4 7 7 5 16 21 7 11 11 5 13 8 8 3 7 6 4 2 1 2 7 6 7 6 1 3 8 2 4 2 6 6 4 4 5
9 7 16 26 18 20 13 4 3 13 9 8 7 6 18 18 8 6 8 5 10 11 11 8 1 6 5 5 1 6 3 5 6 4 7 7 7 3 3 5 3 7 5 3 3
5 11 13 15 4 33 31 16 6 5 4 6 10 16 13 12 5 10 8 7 12 9 8 9 5 9 13 12 9 6 6 6 6 2 4 9 4 3 4 6 4 4 4 4 3
2 7 14 18 14 24 21 9 8 11 3 9 4 20 18 10 5 7 6 4 3 5 7 7 8 5 2 6 8 4 10 12 15 21 13 12 11 7 9 9 4 2 4 4 5
4 11 7 20 13 28 25 19 19 6 8 10 15 22 20 14 13 11 10 5 10 3 4 4 2 4 3 3 4 5 10 17 22 14 10 3 2 6 8 4 4 3 1 4 5
1 3 10 27 24 22 29 26 22 14 6 8 19 12 9 8 8 11 7 8 13 13 11 9 7 5 6 1 6 6 18 15 13 10 12 18 11 7 4 7 6 3 3 2 6
Wind_Direction
244 225 262 204 201 204 208 205 190 183 183 187 196 172 164 189 213 168 221 213 184 73 5 288 96 22 25 72 90 122 70 177 192 147 228 166 141 158 95 121 28 147 154 208 135
241 227 220 234 201 204 208 202 191 184 182 186 180 163 163 124 310 247 217 182 186 149 190 214 161 140 62 76 355 102 128 213 212 193 195 174 162 166 131 130 54 57 34 125 141
241 249 239 241 202 202 206 200 194 177 175 171 162 152 140 105 51 251 180 191 188 162 254 180 140 149 131 134 136 205 184 193 264 237 193 158 155 179 124 240 213 184 154 149 157
238 236 242 218 253 203 202 196 192 171 177 161 156 142 127 126 193 267 186 175 182 169 213 167 171 139 134 155 163 210 241 210 292 319 156 166 129 159 174 215 203 178 165 154 167
247 245 232 215 216 220 198 193 189 166 164 158 139 141 142 168 252 3 167 168 145 156 178 181 155 132 162 174 117 175 243 207 353 74 143 127 165 181 217 332 102 127 163 172 176
269 281 217 224 216 221 195 188 179 164 160 143 144 144 154 208 258 119 140 134 151 149 165 168 168 184 148 162 149 202 206 221 35 52 63 121 159 142 231 108 131 151 179 189 189
270 269 227 216 211 220 191 182 170 157 155 152 152 174 183 192 27 99 112 153 147 146 151 208 149 128 127 114 200 125 138 316 218 80 78 109 59 222 136 122 164 183 193 198 205
252 255 221 206 207 206 185 181 165 156 143 148 161 100 213 201 25 170 143 87 124 127 133 168 117 100 161 146 57 123 85 162 272 143 324 117 242 248 173 145 187 204 211 215 214
262 252 225 205 204 199 188 176 160 151 139 128 126 108 228 41 186 213 159 144 123 95 81 122 117 156 63 126 74 15 156 180 295 281 129 141 246 228 167 172 201 208 222 225 235
254 260 228 208 200 188 179 162 142 136 120 104 75 144 179 190 178 161 137 129 138 121 83 105 65 114 62 125 194 154 126 145 200 224 351 180 253 261 157 191 211 214 220 232 237
254 260 230 205 189 176 163 144 155 163 141 175 185 265 137 172 99 158 149 94 89 84 151 148 129 184 174 171 168 159 157 161 170 69 157 220 260 249 212 200 230 233 227 230 234
256 259 223 201 181 171 166 170 167 175 147 159 175 277 158 136 109 199 140 125 121 133 115 75 198 209 171 154 135 141 164 171 70 71 161 308 264 253 219 232 207 222 225 231 242
252 249 221 187 168 165 176 178 142 124 121 201 179 205 169 159 164 199 164 139 148 143 164 158 198 159 160 159 153 178 166 184 161 140 114 6 284 253 248 233 241 236 229 228 227
258 231 208 173 166 168 176 152 148 140 110 174 152 230 172 133 105 150 187 128 141 158 130 167 167 158 156 185 130 188 198 156 140 129 190 76 279 276 260 262 228 245 236 232 233
253 207 193 168 154 176 164 156 156 73 187 160 152 68 121 171 138 213 180 54 151 157 131 206 150 137 168 179 145 215 132 132 106 98 98 158 217 265 335 275 248 235 234 238 235
210 188 175 168 163 164 155 145 99 150 207 173 135 157 141 154 269 123 131 85 142 107 56 169 150 160 175 110 159 145 90 49 60 114 237 199 162 264 194 214 256 247 263 256 245
182 172 165 168 161 149 153 148 146 183 162 173 163 159 171 151 129 167 179 174 154 131 170 111 166 165 131 92 73 150 104 24 2 326 222 119 184 245 240 240 227 263 303 330 108
171 164 168 162 144 150 160 156 169 165 181 173 153 148 173 140 109 182 153 183 251 130 130 157 196 168 178 164 158 179 149 149 178 214 221 116 236 245 230 254 253 261 6 109 124
159 164 164 163 146 160 157 167 186 177 152 150 129 152 136 165 131 151 188 194 185 202 151 143 181 76 141 141 155 190 185 155 105 37 40 218 297 300 282 263 224 187 145 166 171
163 163 151 164 145 162 169 175 147 145 124 142 158 178 168 173 140 179 186 205 186 186 183 195 113 126 137 110 57 178 153 118 49 137 256 282 282 238 278 243 173 200 204 204 180
164 155 155 158 145 171 181 191 142 155 135 151 151 159 171 171 150 183 185 290 172 185 110 133 103 198 133 205 162 138 178 68 115 151 170 218 263 223 261 274 163 217 203 207 205
151 146 155 152 153 186 176 165 119 152 127 131 110 101 163 164 129 166 185 173 167 150 148 141 114 132 204 233 181 206 168 155 180 205 163 136 273 36 319 256 114 102 139 179 198
119 130 159 152 163 176 161 192 126 160 154 155 130 152 164 166 126 152 162 222 174 162 166 177 36 89 24 344 67 198 195 164 99 74 194 145 249 11 302 76 82 112 134 145 147
141 142 147 180 176 164 166 179 138 185 138 110 118 124 131 156 42 171 147 187 187 190 157 103 130 158 196 212 124 166 159 163 132 204 154 228 176 243 226 188 173 167 134 126 177
25 134 151 172 160 166 166 136 158 170 183 144 104 157 153 140 118 152 133 127 101 177 160 141 164 165 106 165 152 151 178 177 197 217 197 236 185 216 203 193 239 197 137 174 223
140 146 147 172 161 162 170 190 170 159 157 175 144 160 157 154 180 162 127 165 167 107 118 19 173 111 352 97 133 163 189 191 213 220 242 118 217 234 230 198 164 172 73 335 302
294 13 149 165 163 166 189 173 187 142 9 132 141 141 159 173 110 149 152 125 158 161 168 136 121 87 240 94 73 316 211 200 211 208 212 234 207 178 178 189 197 175 155 266 292